• Em Portugal
  • Lista de países
  • Para 7 dias
  • Temperatura da água
  • Mapas de satélite
  • Mapa do tempo
  • Widgets de tempo
  • user-avatar
    Iniciar Sessão

    Previsão horária em Eisenstadt

    Hoje, 24 Junho, Domingo

    Tempo Temperatura Precipitação Vento Pressão Humidade
    00:00 +10°C° 0 mm 2 m/s 725 mmHg 83%
    01:00 +10°C° 0 mm 2 m/s 725 mmHg 85%
    02:00 +10°C° 0 mm 2 m/s 725 mmHg 86%
    03:00 +10°C° 0 mm 2 m/s 725 mmHg 86%
    04:00 +10°C° 0 mm 2 m/s 725 mmHg 86%
    05:00 +12°C° 0 mm 2 m/s 725 mmHg 83%
    06:00 +13°C° 0 mm 2 m/s 725 mmHg 79%
    07:00 +14°C° 0 mm 2 m/s 725 mmHg 74%
    08:00 +15°C° 0,3 mm 2 m/s 725 mmHg 70%
    09:00 +16°C° 0,3 mm 3 m/s 725 mmHg 67%
    10:00 +17°C° 0,3 mm 3 m/s 725 mmHg 63%
    11:00 +17°C° 0,2 mm 3 m/s 725 mmHg 60%
    12:00 +18°C° 0,2 mm 3 m/s 724 mmHg 57%
    13:00 +19°C° 0 mm 3 m/s 725 mmHg 54%
    14:00 +19°C° 0,2 mm 3 m/s 724 mmHg 56%
    15:00 +18°C° 0,2 mm 2 m/s 724 mmHg 58%
    16:00 +18°C° 0,2 mm 2 m/s 724 mmHg 60%
    17:00 +17°C° 0,3 mm 2 m/s 724 mmHg 66%
    18:00 +16°C° 0,3 mm 1 m/s 724 mmHg 72%
    19:00 +15°C° 0,3 mm 1 m/s 723 mmHg 78%
    20:00 +15°C° 0,1 mm 1 m/s 724 mmHg 80%
    21:00 +14°C° 0,1 mm 1 m/s 724 mmHg 82%
    22:00 +13°C° 0,1 mm 1 m/s 724 mmHg 83%
    23:00 +13°C° 0,3 mm 1 m/s 724 mmHg 85%

    Amanhã, 25 Junho, Segunda-feira

    Tempo Temperatura Precipitação Vento Pressão Humidade
    00:00 +12°C° 0,3 mm 1 m/s 724 mmHg 87%
    01:00 +12°C° 0,3 mm 1 m/s 724 mmHg 89%
    02:00 +12°C° 1,1 mm 1 m/s 724 mmHg 91%
    03:00 +12°C° 1,1 mm 2 m/s 724 mmHg 92%
    04:00 +10°C° 1,1 mm 2 m/s 724 mmHg 94%
    05:00 +10°C° 1,3 mm 2 m/s 724 mmHg 94%
    06:00 +10°C° 1,3 mm 2 m/s 724 mmHg 94%
    07:00 +10°C° 1,3 mm 2 m/s 724 mmHg 93%
    08:00 +12°C° 0,4 mm 2 m/s 725 mmHg 89%
    09:00 +13°C° 0,4 mm 2 m/s 725 mmHg 84%
    10:00 +14°C° 0,4 mm 2 m/s 725 mmHg 79%
    11:00 +16°C° 0,1 mm 2 m/s 725 mmHg 73%
    12:00 +17°C° 0,1 mm 2 m/s 725 mmHg 67%
    13:00 +19°C° 0,1 mm 2 m/s 725 mmHg 61%
    14:00 +19°C° 0,2 mm 2 m/s 725 mmHg 59%
    15:00 +20°C° 0,2 mm 2 m/s 725 mmHg 58%
    16:00 +20°C° 0,2 mm 2 m/s 725 mmHg 56%
    17:00 +19°C° 0,1 mm 2 m/s 725 mmHg 62%
    18:00 +18°C° 0,1 mm 2 m/s 725 mmHg 68%
    19:00 +18°C° 0,1 mm 1 m/s 725 mmHg 73%
    20:00 +16°C° 0 mm 1 m/s 725 mmHg 77%
    21:00 +14°C° 0 mm 1 m/s 725 mmHg 80%
    22:00 +13°C° 0 mm 2 m/s 726 mmHg 83%
    23:00 +13°C° 0 mm 2 m/s 725 mmHg 83%

    Depois de amanhã, 26 Junho, Terça-feira

    Tempo Temperatura Precipitação Vento Pressão Humidade
    00:00 +13°C° 0 mm 2 m/s 725 mmHg 83%
    01:00 +12°C° 0 mm 2 m/s 725 mmHg 83%
    02:00 +12°C° 0 mm 2 m/s 725 mmHg 84%
    03:00 +12°C° 0 mm 2 m/s 725 mmHg 84%
    04:00 +10°C° 0 mm 2 m/s 725 mmHg 85%
    05:00 +12°C° 0 mm 3 m/s 725 mmHg 80%
    06:00 +14°C° 0 mm 3 m/s 725 mmHg 76%
    07:00 +15°C° 0 mm 4 m/s 725 mmHg 71%
    08:00 +18°C° 0 mm 4 m/s 726 mmHg 65%
    09:00 +19°C° 0 mm 4 m/s 726 mmHg 60%
    10:00 +20°C° 0 mm 4 m/s 726 mmHg 55%
    11:00 +21°C° 0,1 mm 4 m/s 725 mmHg 52%
    12:00 +22°C° 0,1 mm 4 m/s 725 mmHg 49%
    13:00 +23°C° 0,1 mm 4 m/s 725 mmHg 47%
    14:00 +22°C° 0,1 mm 4 m/s 724 mmHg 48%
    15:00 +22°C° 0,1 mm 4 m/s 724 mmHg 50%
    16:00 +22°C° 0,1 mm 4 m/s 724 mmHg 52%
    17:00 +21°C° 0,2 mm 3 m/s 724 mmHg 60%
    18:00 +20°C° 0,2 mm 3 m/s 724 mmHg 68%
    19:00 +18°C° 0,2 mm 3 m/s 724 mmHg 75%
    20:00 +17°C° 0 mm 3 m/s 724 mmHg 78%
    21:00 +16°C° 0 mm 3 m/s 724 mmHg 80%
    22:00 +14°C° 0 mm 3 m/s 724 mmHg 82%
    23:00 +13°C° 0 mm 3 m/s 724 mmHg 83%

    27 Junho, Quarta-feira

    Tempo Temperatura Precipitação Vento Pressão Humidade
    00:00 +13°C° 0 mm 3 m/s 724 mmHg 83%
    01:00 +13°C° 0 mm 3 m/s 724 mmHg 84%
    02:00 +12°C° 0 mm 3 m/s 724 mmHg 85%
    03:00 +12°C° 0 mm 3 m/s 724 mmHg 86%
    04:00 +12°C° 0 mm 3 m/s 723 mmHg 88%
    05:00 +13°C° 0,1 mm 3 m/s 724 mmHg 84%
    06:00 +14°C° 0,1 mm 4 m/s 724 mmHg 81%
    07:00 +17°C° 0,1 mm 4 m/s 724 mmHg 77%
    08:00 +16°C° 0,3 mm 5 m/s 724 mmHg 72%
    09:00 +17°C° 0,3 mm 5 m/s 723 mmHg 67%
    10:00 +19°C° 0,3 mm 5 m/s 723 mmHg 62%
    11:00 +20°C° 0,2 mm 5 m/s 723 mmHg 59%
    12:00 +20°C° 0,2 mm 5 m/s 723 mmHg 56%
    13:00 +21°C° 0,2 mm 6 m/s 722 mmHg 53%
    14:00 +20°C° 0,2 mm 6 m/s 722 mmHg 55%
    15:00 +20°C° 0,2 mm 6 m/s 722 mmHg 56%
    16:00 +20°C° 0,2 mm 6 m/s 722 mmHg 58%
    17:00 +19°C° 0,2 mm 5 m/s 722 mmHg 63%
    18:00 +16°C° 0,2 mm 5 m/s 722 mmHg 69%
    19:00 +15°C° 0,2 mm 4 m/s 722 mmHg 74%
    20:00 +14°C° 0,1 mm 4 m/s 722 mmHg 77%
    21:00 +13°C° 0,1 mm 4 m/s 722 mmHg 80%
    22:00 +12°C° 0,1 mm 4 m/s 722 mmHg 83%
    23:00 +12°C° 0,1 mm 4 m/s 721 mmHg 84%

    28 Junho, Quinta-feira

    Tempo Temperatura Precipitação Vento Pressão Humidade
    00:00 +12°C° 0,1 mm 4 m/s 721 mmHg 85%
    01:00 +12°C° 0,1 mm 4 m/s 721 mmHg 86%
    02:00 +12°C° 0 mm 4 m/s 721 mmHg 85%
    03:00 +12°C° 0 mm 5 m/s 721 mmHg 84%
    04:00 +12°C° 0 mm 5 m/s 720 mmHg 83%
    05:00 +12°C° 0,4 mm 5 m/s 720 mmHg 84%
    06:00 +13°C° 0,4 mm 5 m/s 720 mmHg 85%
    07:00 +13°C° 0,4 mm 5 m/s 719 mmHg 85%
    08:00 +13°C° 1,5 mm 5 m/s 719 mmHg 87%
    09:00 +13°C° 1,5 mm 5 m/s 718 mmHg 89%
    10:00 +13°C° 1,5 mm 5 m/s 718 mmHg 91%
    11:00 +13°C° 1,9 mm 6 m/s 717 mmHg 91%
    12:00 +14°C° 1,9 mm 6 m/s 717 mmHg 91%
    13:00 +14°C° 1,9 mm 6 m/s 716 mmHg 91%
    14:00 +14°C° 3,5 mm 6 m/s 716 mmHg 92%
    15:00 +14°C° 3,5 mm 6 m/s 715 mmHg 93%
    16:00 +14°C° 3,5 mm 5 m/s 715 mmHg 93%
    17:00 +14°C° 3,3 mm 5 m/s 714 mmHg 94%
    18:00 +14°C° 3,3 mm 4 m/s 714 mmHg 95%
    19:00 +14°C° 3,3 mm 4 m/s 714 mmHg 95%
    20:00 +14°C° 1,6 mm 3 m/s 714 mmHg 96%
    21:00 +14°C° 1,6 mm 3 m/s 715 mmHg 96%
    22:00 +14°C° 1,6 mm 3 m/s 715 mmHg 97%
    23:00 +14°C° 0,2 mm 3 m/s 715 mmHg 97%

    29 Junho, Sexta-feira

    Tempo Temperatura Precipitação Vento Pressão Humidade
    00:00 +15°C° 0,2 mm 2 m/s 715 mmHg 97%
    01:00 +15°C° 0,2 mm 2 m/s 715 mmHg 97%
    02:00 +15°C° 0,1 mm 2 m/s 715 mmHg 97%
    03:00 +14°C° 0,1 mm 2 m/s 715 mmHg 97%
    04:00 +14°C° 0,1 mm 1 m/s 715 mmHg 97%
    05:00 +14°C° 0,2 mm 1 m/s 715 mmHg 97%
    06:00 +15°C° 0,2 mm 1 m/s 716 mmHg 96%
    07:00 +15°C° 0,2 mm 1 m/s 716 mmHg 95%
    08:00 +15°C° 0,5 mm 1 m/s 716 mmHg 93%
    09:00 +16°C° 0,5 mm 1 m/s 716 mmHg 91%
    10:00 +16°C° 0,5 mm 0 m/s 717 mmHg 88%
    11:00 +18°C° 0,2 mm 1 m/s 717 mmHg 88%
    12:00 +18°C° 0,2 mm 1 m/s 717 mmHg 89%
    13:00 +17°C° 0,2 mm 2 m/s 717 mmHg 89%
    14:00 +17°C° 0,1 mm 2 m/s 717 mmHg 86%
    15:00 +18°C° 0,1 mm 2 m/s 717 mmHg 84%
    16:00 +19°C° 0,1 mm 2 m/s 717 mmHg 82%
    17:00 +18°C° 0,1 mm 2 m/s 717 mmHg 83%
    18:00 +18°C° 0,1 mm 2 m/s 717 mmHg 85%
    19:00 +18°C° 0,1 mm 2 m/s 717 mmHg 87%
    20:00 +17°C° 0,1 mm 2 m/s 717 mmHg 88%
    21:00 +16°C° 0,1 mm 2 m/s 717 mmHg 90%
    22:00 +16°C° 0,1 mm 2 m/s 718 mmHg 92%
    23:00 +16°C° 0 mm 2 m/s 718 mmHg 91%
    Mostrar mais